Погода в Владивостоке

Погода в Владивостоке : погода сейчас, прогноз погоды и архив. Всё, что Вы хотите узнать о погоде в Владивостоке!

Хотите узнать прогноз погоды в Владивостоке? Тогда Вам сюда: Погода в Владивостоке

Поиск расширенной информации на нашем сайте:

Другие новости

Новости СМИ2

Главная страница сайта

Новости сайта

03.07.2017

Напоминаем, что на нашем специализированном сайте Метеоцентр.Азия вы можете получить высокодетализированные автоматические прогнозы погоды по пунктам России, СНГ и мира в авиационном формате (включающие направление и скорость ветра, видимость, явления погоды, количество и форму облачности, нижнюю и верхнюю границу облачности).

Рекомендуем: Подробное описание купить квартиру эконом класса в подмосковье тут.

Погода в Владивостоке - сегодня

Время (UTC), дата Ветер
(°,м/с) 
Видим.   Явления Облачность Т
(°С)
Тd
(°С)
f(%) Тe
(°С)
Pmin
(гПа)
dP
(гПа)
Po
(мм)
O2
(г/м3)
Тmin Tmax R s Состояние
почвы
15 18.09.17 220 (ЮЗ) 3{11}  20000 м    6/6 600 м 
[Cu hum]
+17.5 +16.5 94 +30  1000.8  -0.4  734  274           
18 18.09.17 360 (С) 20000 м    ясно 
+14.2 +13.8 97 +20  1001.3  0.2  734  278           
21 18.09.17 080 (В) 20000 м    ясно 
+15.8 +11.6 76 +20  1002.2  735  278  +14        влажная 
00 19.09.17 340 (С) 20000 м    3/0 верхняя 
[Ci fib]
+17 +15.1 89 +27  1002.9  0.8  736  276           
03 19.09.17 170 (Ю) 20000 м    3/0 верхняя 
[Ci fib]
+21.7 +14.2 62 +30  1002.4  -0.2  736  272           
06 19.09.17 140 (ЮВ) 20000 м    5/3 600 м верхняя 
[Sc diur, vesp|Ci fib]
+23.1 +13.1 53 +29  1001.4  -0.8  735  271           
09 19.09.17 130 (ЮВ) 2{14}  10 км  гроза, ливневой дождь  10/10 600 м кучево-дожд. 
[Cb calv]
+14.7 +12.5 87 +20  1004.8  2.6  737  279    +23.3     
12 19.09.17 010 (С) 7-10{11}  20000 м  {гроза, ливн. осадки}  4/0 
[Sc]
+16.3 +13.5 83 +23  1004.6  -0.1  737  277           
15 19.09.17 110 (В) 3{14}  20000 м    3/3 600 м 
[Sc]
+15.7 +10.6 72 +18  1003  -1.6  736  278           
18 19.09.17 010 (С) 5{11}  20000 м    4/4 600 м 
[Sc]
+13.4 +12.7 96 +18  1003.4  0.3  736  280           
21 19.09.17 360 (С) 8-12{13}  20000 м    6/6 600 м 
[Sc]
+13.4 +12.7 96 +17  1003  -0.4  736  280  +12.8    18    влажная 
00 20.09.17 360 (С) 9-15{16}  20000 м    9/9 600 м 
[Sc]
+15.2 +13 87 +20  1004.6  1.7  737  279           
03 20.09.17 350 (С) 9-14{16}  20000 м    6/6 600 м 
[Sc]
+18.2 +13.3 73 +24  1005  0.6  737  276           
06 20.09.17 360 (С) 6{16}  20000 м  {ливн. осадки}  9/6 600 м 
[Sc]
+16.5 +15.3 93 +26  1005.6  0.5  738  277           
09 20.09.17 350 (С) 6{13}  20000 м    8/8 600 м 
[Sc]
+17.8 +14.5 81 +26  1007.3  1.7  739  277    +19.7  0.5     
12 20.09.17 340 (С) 20000 м    ясно 
+16.2 +13.9 86 +24  1009.6  2.2  741  279           
15 20.09.17 340 (С) 20000 м    ясно 
+15.4 +14.2 93 +23  1010.6  0.9  741  280           
18 20.09.17 360 (С) 20000 м    ясно 
+14.8 +13.3 91 +21  1011.6  0.9  742  281           
21 20.09.17 350 (С) 20000 м    ясно 
+15.1 +11.3 78 +19  1012.6  743  281  +14.6        сухая 
00 21.09.17 190 (Ю) 20000 м    ясно 
+18.2 +13.9 76 +27  1013.4  744  278           
03 21.09.17 300 (СЗ) 20000 м    3/3 600 м 
[Sc]
+22.2 +11.5 51 +26  1012.5  -0.6  743  275           
06 21.09.17 170 (Ю) 20000 м    6/4 600 м верхняя 
[Sc|Ci fib]
+22.9 +14.8 60 +32  1011.3  -1.1  742  273           
09 21.09.17 180 (Ю) 20000 м    3/3 600 м 
[Sc]
+19.2 +12 63 +24  1011.7  0.1  742  277    +22.9       
12 21.09.17 180 (Ю) 20000 м    3/3 600 м 
[Sc]
+17.3 +14.2 82 +26  1012.7  0.9  743  279           
15 21.09.17 150 (ЮВ) 20000 м    ясно 
+16.6 +15.6 94 +27  1012.9  0.1  743  279           
Время (UTC), дата Ветер
(°,м/с) 
Видим.   Явления Облачность Т
(°С)
Тd
(°С)
f(%) Тe
(°С)
Pmin
(гПа)
dP
(гПа)
Po
(мм)
O2
(г/м3)
Тmin Tmax R s Состояние
почвы

Для получения пояснительной информации подведите курсор к названию столбца.

ПОГОДА в Владивостоке - архив

Всё, что Вы хотите узнать о погоде в Владивостоке - удобно и подробно!

Выберите нужную дату (начиная с 1 января 2015* года) и нажмите кнопку "Найти".
Будут отображены архивные сводки погоды по пункту Владивосток, начиная с указанной даты.


Отображать данные в формате CSV (для использования в таблицах Excel)


Внимание! Наш архив погоды предназначен исключительно для личного некоммерческого использования в познавательных целях. Если Вам необходимы официальные справки о состоянии погоды (для производственных, юридических, коммерческих и т.п. целей), обращайтесь в органы Росгидромета.

*Примечание: данная дата относится к архиву по метеостанциям СССР (Россия, СНГ, Балтия).
Архив по метеостанциям Зарубежной Европы и Азии (кроме Китая) хранится 10 дней, по другим регионам земного шара (Китай, Африка, Америка, Австралия, Океания) - 1 день.

Владивосток - район местоположения метеостанции


Название, широта, долгота, высота метеостанции:
Владивосток (город) 43.1°ш. 131.9°д. 183 м над ур. моря [Российская Федерация]

Дополнительная информация

В oтличие oт бoльшинства пoгoдных сайтoв мы публикуем пoдрoбную метеoинфoрмацию в детальнoм прoфессиoнальнoм фoрмате.

Характеристики температуры и влажнoсти вoздуха измеряются на высoте 2 м в тени вдали oт зданий и деревьев.
Скoрoсть ветра измеряется на высoте 10 м (на урoвне рoста челoвека скoрoсть ветра ниже в 1.5-2 раза). Если метеoстанция нахoдится в гoрoде или в лесу, тo скoрoсть ветра занижена на 2-4 м/с пo сравнению с oткрытым местoм. Скoрoсть ветра над акватoриями крупных рек и oзёр, а также на вершинах хoлмoв на 2-5 м/с выше, чем в oбычных услoвиях.
Атмoсфернoе давление в разных тoчках местнoсти мoжет значительнo oтличаться oт давления на метеoстанции, в зависимoсти oт услoвий рельефа (при пoдъёме на 10 м давление пoнижается примернo на 1 мм рт.ст.).